CP-7 (DAVE) (43615 NORAD) Tracking and Keplerian Element Data

This shows tracking and keplerian element data for the satellite.

Feedback or suggestion? Click here.




ElementValue
Catalog43615
NameCP-7 (DAVE)
Epoch Orbit906
Epoch Day317.59742608
Epoch Year2018
RAAN273.9146
Inclination93.0309
Eccentricity0.0019921
Argument of Perigee64.412
Mean Anonmoly295.9163
Mean Motion15.36489722
Decay Rate3.108E-05
L11 43615U 18070C 18317.59742608 .00003108 00000-0 87035-4 0 9995
L22 43615 93.0309 273.9146 0019921 64.4120 295.9163 15.36489722 9063

Live tracking and technical data element details for CP-7 (DAVE) (NORAD 43615). CP-7 (DAVE) can be tracked NOW for your location showing map with azimuth and elevation plus other details from your city location.

Track the satellite on the map from your city or location and see movement details for azimuth, elevation, latitude, longitude, range, height, and movement on the map or in text.







IsCatalogInMostPopularTable: catalog: 43615, numindb: 19
Update: records affected: 1



GetName: 43615 CP-7 (DAVE)

Hit Count: updated at: Thu, 15 Nov 2018 04:34:30 GMT